Volver al catálogo

COSMOS 2479

ActivoNavegaciónGEO
NORAD 38101·PAYLOAD·🇷🇺 Russia

Lanzado Mar 30, 2012 desde Baikonur Cosmodrome

Loading…

TLE

ActualizadoSource: Space-Track

Época: Sep 14, 2026, 10:48 UTC

1 38101U 12012A   26257.45015127 -.00000255  00000-0  00000-0 0  9999
2 38101   9.0523  55.4325 0005333 215.0021 334.0382  1.00397547 52986

Sigue COSMOS 2479 en tiempo real con AllMySat

Download on the App Store